H1 CPF 2 NER 2021 9 12 9 255 01 glonass128 H2 1106401 9128 37867 2021 9 12 0 0 0 2021 9 15 23 45 0 900 1 1 0 0 0 1 H9 10 0 59469 0.00000 0 -9823822.458 -5961525.617 22815270.785 10 0 59469 900.00000 0 -7693106.345 -7811019.049 23069391.432 10 0 59469 1800.00000 0 -5699684.443 -9813883.880 22877288.577 10 0 59469 2700.00000 0 -3890314.449 -11918726.603 22242448.920 10 0 59469 3600.00000 0 -2301789.884 -14067065.261 21176901.151 10 0 59469 4500.00000 0 -959604.707 -16195600.127 19701006.230 10 0 59469 5400.00000 0 122903.506 -18238706.362 17843088.871 10 0 59469 6300.00000 0 944895.400 -20131047.101 15638915.079 10 0 59469 7200.00000 0 1517841.476 -21810199.349 13131023.542 10 0 59469 8100.00000 0 1864810.249 -23219183.619 10367921.623 10 0 59469 9000.00000 0 2019261.561 -24308791.200 7403159.556 10 0 59469 9900.00000 0 2023394.803 -25039610.340 4294299.530 10 0 59469 10800.00000 0 1926121.095 -25383664.497 1101798.858 10 0 59469 11700.00000 0 1780745.096 -25325591.551 -2112171.142 10 0 59469 12600.00000 0 1642455.182 -24863311.856 -5284946.836 10 0 59469 13500.00000 0 1565729.722 -24008154.736 -8354609.538 10 0 59469 14400.00000 0 1601771.372 -22784436.127 -11261212.529 10 0 59469 15300.00000 0 1796080.635 -21228503.844 -13947971.766 10 0 59469 16200.00000 0 2186274.259 -19387290.085 -16362394.982 10 0 59469 17100.00000 0 2800243.624 -17316432.194 -18457325.143 10 0 59469 18000.00000 0 3654733.542 -15078041.541 -20191876.082 10 0 59469 18900.00000 0 4754403.621 -12738215.510 -21532240.775 10 0 59469 19800.00000 0 6091413.329 -10364398.484 -22452355.683 10 0 59469 20700.00000 0 7645549.065 -8022704.017 -22934407.880 10 0 59469 21600.00000 0 9384888.116 -5775311.519 -22969175.330 10 0 59469 22500.00000 0 11266971.235 -3678047.056 -22556194.364 10 0 59469 23400.00000 0 13240433.784 -1778249.529 -21703752.113 10 0 59469 24300.00000 0 15247025.979 -113010.653 -20428705.400 10 0 59469 25200.00000 0 17223936.457 1292139.266 -18756131.040 10 0 59469 26100.00000 0 19106320.759 2424046.988 -16718815.921 10 0 59469 27000.00000 0 20829928.136 3282222.166 -14356598.320 10 0 59469 27900.00000 0 22333716.397 3878584.630 -11715574.625 10 0 59469 28800.00000 0 23562345.408 4236687.036 -8847188.225 10 0 59469 29700.00000 0 24468445.563 4390448.789 -5807219.294 10 0 59469 30600.00000 0 25014567.382 4382457.380 -2654695.819 10 0 59469 31500.00000 0 25174732.105 4261910.921 549252.427 10 0 59469 32400.00000 0 24935520.168 4082290.227 3742574.681 10 0 59469 33300.00000 0 24296653.799 3898859.432 6863492.149 10 0 59469 34200.00000 0 23271051.094 3766100.653 9851680.585 10 0 59469 35100.00000 0 21884350.677 3735190.359 12649420.682 10 0 59469 36000.00000 0 20173927.677 3851622.850 15202695.382 10 0 59469 36900.00000 0 18187442.396 4153079.684 17462214.444 10 0 59469 37800.00000 0 15980981.764 4667633.509 19384348.257 10 0 59469 38700.00000 0 13616869.880 5412360.854 20931954.675 10 0 59469 39600.00000 0 11161237.117 6392421.635 22075084.486 10 0 59469 40500.00000 0 8681446.693 7600644.161 22791553.289 10 0 59469 41400.00000 0 6243483.211 9017634.022 23067369.682 10 0 59469 42300.00000 0 3909409.282 10612403.933 22897011.847 10 0 59469 43200.00000 0 1734993.594 12343500.610 22283546.983 10 0 59469 44100.00000 0 -232392.833 14160584.423 21238590.431 10 0 59469 45000.00000 0 -1955525.937 16006398.836 19782103.815 10 0 59469 45900.00000 0 -3408651.246 17819050.344 17942034.223 10 0 59469 46800.00000 0 -4578324.671 19534506.216 15753799.129 10 0 59469 47700.00000 0 -5463735.698 21089207.439 13259624.726 10 0 59469 48600.00000 0 -6076498.444 22422688.640 10507748.232 10 0 59469 49500.00000 0 -6439918.190 23480095.299 7551497.663 10 0 59469 50400.00000 0 -6587763.029 24214491.818 4448265.574 10 0 59469 51300.00000 0 -6562591.597 24588861.892 1258395.881 10 0 59469 52200.00000 0 -6413707.118 24577714.797 -1955994.724 10 0 59469 53100.00000 0 -6194824.579 24168227.382 -5132237.125 10 0 59469 54000.00000 0 -5961550.757 23360871.023 -8208346.956 10 0 59469 54900.00000 0 -5768785.537 22169494.737 -11124252.769 10 0 59469 55800.00000 0 -5668156.819 20620859.015 -13822989.156 10 0 59469 56700.00000 0 -5705600.242 18753638.801 -16251829.453 10 0 59469 57600.00000 0 -5919188.910 16616937.013 -18363333.916 10 0 59469 58500.00000 0 -6337307.474 14268371.372 -20116291.085 10 0 59469 59400.00000 0 -6977249.949 11771815.670 -21476532.660 10 0 59469 60300.00000 0 -7844302.134 9194891.405 -22417605.173 10 0 59469 61200.00000 0 -8931348.321 6606316.305 -22921284.971 10 0 59469 62100.00000 0 -10219019.201 4073221.931 -22977926.736 10 0 59469 63000.00000 0 -11676374.482 1658553.374 -22586639.387 10 0 59469 63900.00000 0 -13262090.683 -581339.887 -21755286.984 10 0 59469 64800.00000 0 -14926103.064 -2598821.774 -20500315.918 10 0 59469 65700.00000 0 -16611631.497 -4356708.777 -18846413.231 10 0 59469 66600.00000 0 -18257503.893 -5829559.661 -16826004.250 10 0 59469 67500.00000 0 -19800678.693 -7004464.447 -14478600.847 10 0 59469 68400.00000 0 -21178859.864 -7881302.696 -11850014.383 10 0 59469 69300.00000 0 -22333094.409 -8472463.614 -8991449.964 10 0 59469 70200.00000 0 -23210243.674 -8802043.120 -5958500.626 10 0 59469 71100.00000 0 -23765225.511 -8904554.770 -2810061.751 10 0 59469 72000.00000 0 -23962934.382 -8823211.455 392812.669 10 0 59469 72900.00000 0 -23779760.345 -8607852.288 3588089.622 10 0 59469 73800.00000 0 -23204644.854 -8312603.388 6713949.955 10 0 59469 74700.00000 0 -22239630.701 -7993371.660 9709971.941 10 0 59469 75600.00000 0 -20899884.409 -7705277.085 12518283.707 10 0 59469 76500.00000 0 -19213191.039 -7500130.894 15084663.573 10 0 59469 77400.00000 0 -17218942.869 -7424064.658 17359568.562 10 0 59469 78300.00000 0 -14966663.832 -7515408.698 19299073.006 10 0 59469 79200.00000 0 -12514130.149 -7802907.691 20865700.928 10 0 59469 80100.00000 0 -9925163.790 -8304347.482 22029137.713 10 0 59469 81000.00000 0 -7267188.292 -9025650.258 22766808.776 10 0 59469 81900.00000 0 -4608645.918 -9960476.339 23064314.975 10 0 59469 82800.00000 0 -2016380.812 -11090350.233 22915716.789 10 0 59469 83700.00000 0 446905.795 -12385307.483 22323661.560 10 0 59469 84600.00000 0 2725024.928 -13805037.595 21299350.534 10 0 59469 85500.00000 0 4770396.877 -15300477.975 19862344.890 10 0 59470 0.00000 0 6545789.800 -16815795.030 18040212.691 10 0 59470 900.00000 0 8025627.687 -18290672.239 15868021.008 10 0 59470 1800.00000 0 9196813.320 -19662811.461 13387681.509 10 0 59470 2700.00000 0 10059029.874 -20870543.973 10647158.889 10 0 59470 3600.00000 0 10624508.881 -21855442.559 7699556.323 10 0 59470 4500.00000 0 10917271.873 -22564824.114 4602093.921 10 0 59470 5400.00000 0 10971877.174 -22954036.458 1414999.273 10 0 59470 6300.00000 0 10831723.865 -22988430.922 -1799668.525 10 0 59470 7200.00000 0 10546984.468 -22644935.050 -4979237.816 10 0 59470 8100.00000 0 10172254.374 -21913156.304 -8061661.388 10 0 59470 9000.00000 0 9764018.787 -20795967.436 -10986745.763 10 0 59470 9900.00000 0 9378046.269 -19309546.501 -13697346.675 10 0 59470 10800.00000 0 9066821.616 -17482867.949 -16140505.342 10 0 59470 11700.00000 0 8877129.229 -15356665.048 -18268501.313 10 0 59470 12600.00000 0 8847891.737 -12981906.927 -20039799.516 10 0 59470 13500.00000 0 9008357.449 -10417854.454 -21419871.695 10 0 59470 14400.00000 0 9376714.947 -7729777.281 -22381875.339 10 0 59470 15300.00000 0 9959194.367 -4986428.869 -22907176.529 10 0 59470 16200.00000 0 10749693.708 -2257386.305 -22985706.679 10 0 59470 17100.00000 0 11729945.684 389632.947 -22616146.908 10 0 59470 18000.00000 0 12870217.232 2891364.634 -21805937.420 10 0 59470 18900.00000 0 14130511.053 5191393.434 -20571113.064 10 0 59470 19800.00000 0 15462217.142 7242251.574 -18935969.682 10 0 59470 20700.00000 0 16810143.307 9007134.133 -16932569.336 10 0 59470 21600.00000 0 18114837.929 10461161.602 -14600095.516 10 0 59470 22500.00000 0 19315106.213 11592139.715 -11984072.323 10 0 59470 23400.00000 0 20350613.438 12400787.849 -9135464.085 10 0 59470 24300.00000 0 21164465.619 12900429.845 -6109673.994 10 0 59470 25200.00000 0 21705659.394 13116163.512 -2965461.946 10 0 59470 26100.00000 0 21931298.981 13083546.650 236196.817 10 0 59470 27000.00000 0 21808488.211 12846857.346 3433290.020 10 0 59470 27900.00000 0 21315819.578 12457003.546 6563961.044 10 0 59470 28800.00000 0 20444399.230 11969170.876 9567693.418 10 0 59470 29700.00000 0 19198366.239 11440308.035 12386465.213 10 0 59470 30600.00000 0 17594885.283 10926555.145 14965852.373 10 0 59470 31500.00000 0 15663613.518 10480722.201 17256061.140 10 0 59470 32400.00000 0 13445663.695 10149922.329 19212871.450 10 0 59470 33300.00000 0 10992105.796 9973457.749 20798474.848 10 0 59470 34200.00000 0 8362068.121 9981045.879 21982192.367 10 0 59470 35100.00000 0 5620514.592 10191458.980 22741059.945 10 0 59470 36000.00000 0 2835788.016 10611634.015 23060271.047 10 0 59470 36900.00000 0 77018.556 11236290.267 22933468.386 10 0 59470 37800.00000 0 -2588497.844 12048071.840 22362878.940 10 0 59470 38700.00000 0 -5097844.897 13018210.788 21359288.883 10 0 59470 39600.00000 0 -7394851.510 14107685.385 19941857.497 10 0 59470 40500.00000 0 -9432180.651 15268827.589 18137771.814 10 0 59470 41400.00000 0 -11173055.322 16447314.961 15981746.395 10 0 59470 42300.00000 0 -12592549.642 17584465.734 13515375.656 10 0 59470 43200.00000 0 -13678390.569 18619742.467 10786348.952 10 0 59470 44100.00000 0 -14431235.636 19493360.009 7847541.661 10 0 59470 45000.00000 0 -14864413.702 20148888.065 4755998.460 10 0 59470 45900.00000 0 -15003138.414 20535737.887 1571827.657 10 0 59470 46800.00000 0 -14883226.507 20611426.495 -1642972.120 10 0 59470 47700.00000 0 -14549374.489 20343520.494 -4825729.421 10 0 59470 48600.00000 0 -14053066.693 19711174.639 -7914336.772 10 0 59470 49500.00000 0 -13450203.949 18706197.227 -10848481.041 10 0 59470 50400.00000 0 -12798554.696 17333594.630 -13570841.238 10 0 59470 51300.00000 0 -12155138.389 15611569.626 -16028228.307 10 0 59470 52200.00000 0 -11573654.205 13570971.870 -18172642.630 10 0 59470 53100.00000 0 -11102066.182 11254222.653 -19962226.735 10 0 59470 54000.00000 0 -10780449.056 8713758.812 -21362093.287 10 0 59470 54900.00000 0 -10639187.548 6010061.400 -22345011.309 10 0 59470 55800.00000 0 -10697606.308 3209352.574 -22891936.863 10 0 59470 56700.00000 0 -10963088.789 381058.070 -22992378.040 10 0 59470 57600.00000 0 -11430722.000 -2404857.686 -22644587.761 10 0 59470 58500.00000 0 -12083481.248 -5080571.711 -21855581.645 10 0 59470 59400.00000 0 -12892945.743 -7582985.700 -20640981.912 10 0 59470 60300.00000 0 -13820513.221 -9856104.950 -19024691.791 10 0 59470 61200.00000 0 -14819060.645 -11853114.602 -17038408.331 10 0 59470 62100.00000 0 -15834979.250 -13538068.299 -14720984.646 10 0 59470 63000.00000 0 -16810496.762 -14887121.078 -12117655.364 10 0 59470 63900.00000 0 -17686187.853 -15889257.728 -9279141.695 10 0 59470 64800.00000 0 -18403566.453 -16546489.347 -6260654.563 10 0 59470 65700.00000 0 -18907650.665 -16873513.098 -3120815.919 10 0 59470 66600.00000 0 -19149392.677 -16896852.532 79480.217 10 0 59470 67500.00000 0 -19087872.229 -16653517.289 3278244.784 10 0 59470 68400.00000 0 -18692162.526 -16189240.688 6413586.179 10 0 59470 69300.00000 0 -17942791.441 -15556370.691 9424895.651 10 0 59470 70200.00000 0 -16832737.906 -14811503.605 12254003.640 10 0 59470 71100.00000 0 -15367922.643 -14012959.924 14846286.045 10 0 59470 72000.00000 0 -13567173.269 -13218207.587 17151700.517 10 0 59470 72900.00000 0 -11461665.163 -12481339.637 19125734.552 10 0 59470 73800.00000 0 -9093860.671 -11850710.547 20730248.895 10 0 59470 74700.00000 0 -6515989.507 -11366828.748 21934201.550 10 0 59470 75600.00000 0 -3788131.480 -11060592.266 22714239.921 10 0 59470 76500.00000 0 -975978.641 -10951940.364 23055150.623 10 0 59470 77400.00000 0 1851633.037 -11048977.292 22950158.743 10 0 59470 78300.00000 0 4625323.036 -11347605.128 22401070.656 10 0 59470 79200.00000 0 7277791.684 -11831682.131 21418256.862 10 0 59470 80100.00000 0 9746364.916 -12473701.653 20020473.794 10 0 59470 81000.00000 0 11975354.552 -13235965.265 18234526.217 10 0 59470 81900.00000 0 13918137.023 -14072203.262 16094774.476 10 0 59470 82800.00000 0 15538864.227 -14929576.766 13642493.828 10 0 59470 83700.00000 0 16813734.719 -15750979.169 10925095.986 10 0 59470 84600.00000 0 17731771.181 -16477541.350 7995225.902 10 0 59470 85500.00000 0 18295070.148 -17051235.599 4909749.895 10 0 59471 0.00000 0 18518512.124 -17417468.003 1728653.913 10 0 59471 900.00000 0 18428942.878 -17527548.205 -1486127.302 10 0 59471 1800.00000 0 18063859.780 -17340931.154 -4671925.748 10 0 59471 2700.00000 0 17469657.744 -16827131.559 -7766576.912 10 0 59471 3600.00000 0 16699509.803 -15967229.218 -10709651.047 10 0 59471 4500.00000 0 15810972.476 -14754897.194 -13443653.229 10 0 59471 5400.00000 0 14863418.987 -13196907.385 -15915166.604 10 0 59471 6300.00000 0 13915410.804 -11313089.697 -18075914.515 10 0 59471 7200.00000 0 13022120.831 -9135745.077 -19883718.836 10 0 59471 8100.00000 0 12232919.226 -6708536.220 -21303334.475 10 0 59471 9000.00000 0 11589225.565 -4084902.310 -22307142.864 10 0 59471 9900.00000 0 11122719.271 -1326064.779 -22875690.458 10 0 59471 10800.00000 0 10853984.346 1501291.711 -22998061.951 10 0 59471 11700.00000 0 10791645.381 4327565.161 -22672081.549 10 0 59471 12600.00000 0 10932030.426 7082901.703 -21904339.334 10 0 59471 13500.00000 0 11259373.457 9699868.886 -20710043.561 10 0 59471 14400.00000 0 11746546.017 12116025.163 -19112703.149 10 0 59471 15300.00000 0 12356285.121 14276278.819 -17143648.140 10 0 59471 16200.00000 0 13042863.477 16134939.131 -14841398.979 10 0 59471 17100.00000 0 13754129.701 17657375.978 -12250898.279 10 0 59471 18000.00000 0 14433830.864 18821220.875 -9422621.355 10 0 59471 18900.00000 0 15024118.292 19617062.080 -6411583.895 10 0 59471 19800.00000 0 15468130.356 20048607.718 -3276266.805 10 0 59471 20700.00000 0 15712543.326 20132313.112 -77479.720 10 0 59471 21600.00000 0 15709983.228 19896490.795 3122814.631 10 0 59471 22500.00000 0 15421197.975 19379942.952 6262692.657 10 0 59471 23400.00000 0 14816899.475 18630175.425 9281456.106 10 0 59471 24300.00000 0 13879199.421 17701269.349 12120790.294 10 0 59471 25200.00000 0 12602579.484 16651500.017 14725873.266 10 0 59471 26100.00000 0 10994355.900 15540802.426 17046415.932 10 0 59471 27000.00000 0 9074619.160 14428188.745 19037614.871 10 0 59471 27900.00000 0 6875650.771 13369224.367 20661001.205 10 0 59471 28800.00000 0 4440840.275 12413666.559 21885170.756 10 0 59471 29700.00000 0 1823145.732 11603362.789 22686382.894 10 0 59471 30600.00000 0 -916840.836 10970495.174 23049017.516 10 0 59471 31500.00000 0 -3713145.405 10536243.524 22965881.822 10 0 59471 32400.00000 0 -6496891.000 10309922.473 22438360.896 10 0 59471 33300.00000 0 -9198903.931 10288629.144 21476408.421 10 0 59471 34200.00000 0 -11752341.665 10457417.093 20098376.389 10 0 59471 35100.00000 0 -14095235.382 10789990.789 18330685.257 10 0 59471 36000.00000 0 -16172842.940 11249893.476 16207338.708 10 0 59471 36900.00000 0 -17939714.882 11792140.562 13769290.087 10 0 59471 37800.00000 0 -19361387.185 12365231.792 11063670.472 10 0 59471 38700.00000 0 -20415629.194 12913458.914 8142891.282 10 0 59471 39600.00000 0 -21093193.083 13379412.345 5063637.354 10 0 59471 40500.00000 0 -21398031.791 13706580.991 1885769.067 10 0 59471 41400.00000 0 -21346974.676 13841934.446 -1328845.410 10 0 59471 42300.00000 0 -20968873.131 13738376.649 -4517544.444 10 0 59471 43200.00000 0 -20303251.383 13356964.758 -7618109.110 10 0 59471 44100.00000 0 -19398519.165 12668796.493 -10569995.470 10 0 59471 45000.00000 0 -18309822.247 11656483.103 -13315536.838 10 0 59471 45900.00000 0 -17096622.777 10315142.738 -15801090.474 10 0 59471 46800.00000 0 -15820113.310 8652869.681 -17978104.250 10 0 59471 47700.00000 0 -14540575.702 6690657.686 -19804080.586 10 0 59471 48600.00000 0 -13314798.386 4461779.275 -21243417.448 10 0 59471 49500.00000 0 -12193662.758 2010646.398 -22268109.072 10 0 59471 50400.00000 0 -11220001.826 -608799.650 -22858292.301 10 0 59471 51300.00000 0 -10426822.032 -3335101.138 -23002628.042 10 0 59471 52200.00000 0 -9835963.148 -6101614.625 -22698511.001 10 0 59471 53100.00000 0 -9457251.886 -8839061.099 -21952104.594 10 0 59471 54000.00000 0 -9288183.412 -11478188.327 -20778201.632 10 0 59471 54900.00000 0 -9314142.143 -13952433.888 -19199914.949 10 0 59471 55800.00000 0 -9509150.175 -16200477.737 -17248205.551 10 0 59471 56700.00000 0 -9837109.301 -18168578.502 -14961258.986 10 0 59471 57600.00000 0 -10253481.813 -19812597.255 -12383723.493 10 0 59471 58500.00000 0 -10707337.090 -21099626.046 -9565826.077 10 0 59471 59400.00000 0 -11143675.921 -22009155.533 -6562384.782 10 0 59471 60300.00000 0 -11505933.316 -22533735.560 -3431737.100 10 0 59471 61200.00000 0 -11738553.689 -22679103.844 -234605.983 10 0 59471 62100.00000 0 -11789529.748 -22463780.160 2967074.410 10 0 59471 63000.00000 0 -11612798.593 -21918145.514 6111350.676 10 0 59471 63900.00000 0 -11170394.931 -21083046.857 9137437.193 10 0 59471 64800.00000 0 -10434271.851 -20007987.211 11986876.228 10 0 59471 65700.00000 0 -9387713.641 -18748977.650 14604649.960 10 0 59471 66600.00000 0 -8026282.171 -17366141.006 16940224.436 10 0 59471 67500.00000 0 -6358257.544 -15921166.807 18948507.023 10 0 59471 68400.00000 0 -4404554.339 -14474722.528 20590700.701 10 0 59471 69300.00000 0 -2198116.065 -13083927.655 21835040.331 10 0 59471 70200.00000 0 217188.536 -11799994.209 22657398.163 10 0 59471 71100.00000 0 2788123.699 -10666130.411 23041747.979 10 0 59471 72000.00000 0 5454037.273 -9715793.613 22980479.372 10 0 59471 72900.00000 0 8149125.831 -8971364.408 22474556.101 10 0 59471 73800.00000 0 10804923.375 -8443296.980 21533514.693 10 0 59471 74700.00000 0 13352913.086 -8129781.572 20175302.059 10 0 59471 75600.00000 0 15727156.164 -8016934.114 18425953.410 10 0 59471 76500.00000 0 17866830.180 -8079506.539 16319114.520 10 0 59471 77400.00000 0 19718572.223 -8282089.710 13895415.232 10 0 59471 78300.00000 0 21238529.262 -8580760.143 11201704.047 10 0 59471 79200.00000 0 22394029.439 -8925102.730 8290156.543 10 0 59471 80100.00000 0 23164802.976 -9260525.152 5217273.390 10 0 59471 81000.00000 0 23543699.794 -9530766.585 2042786.468 10 0 59471 81900.00000 0 23536871.839 -9680494.108 -1171506.005 10 0 59471 82800.00000 0 23163410.632 -9657875.630 -4362952.090 10 0 59471 83700.00000 0 22454454.002 -9417018.320 -7469281.839 10 0 59471 84600.00000 0 21451798.844 -8920166.623 -10429840.411 10 0 59471 85500.00000 0 20206078.373 -8139563.857 -13186792.426 10 0 59472 0.00000 0 18774581.422 -7058895.680 -15686271.974 10 0 59472 900.00000 0 17218807.035 -5674251.064 -17879453.956 10 0 59472 1800.00000 0 15601859.047 -3994559.321 -19723523.341 10 0 59472 2700.00000 0 13985792.870 -2041480.674 -21182522.756 10 0 59472 3600.00000 0 12429027.277 151243.836 -22228060.438 10 0 59472 4500.00000 0 10983932.341 2538957.583 -22839864.363 10 0 59472 5400.00000 0 9694695.553 5067719.092 -23006171.930 10 0 59472 6300.00000 0 8595556.159 7676329.528 -22723948.165 10 0 59472 7200.00000 0 7709481.389 10298671.144 -21998929.161 10 0 59472 8100.00000 0 7047338.865 12866258.101 -20845491.189 10 0 59472 9000.00000 0 6607597.966 15310892.443 -19286349.474 10 0 59472 9900.00000 0 6376570.252 17567313.899 -17352094.055 10 0 59472 10800.00000 0 6329176.011 19575733.094 -15080573.289 10 0 59472 11700.00000 0 6430201.826 21284143.110 -12516138.414 10 0 59472 12600.00000 0 6635993.522 22650314.106 -9708765.208 10 0 59472 13500.00000 0 6896510.833 23643389.463 -6713070.898 10 0 59472 14400.00000 0 7157655.333 24245019.020 -3587246.232 10 0 59472 15300.00000 0 7363772.306 24449984.409 -391924.055 10 0 59472 16200.00000 0 7460220.462 24266292.931 2810993.450 10 0 59472 17100.00000 0 7395901.198 23714738.460 5959526.359 10 0 59472 18000.00000 0 7125641.363 22827949.787 8992804.754 10 0 59472 18900.00000 0 6612330.062 21648967.819 11852230.629 10 0 59472 19800.00000 0 5828720.600 20229412.009 14482592.751 10 0 59472 20700.00000 0 4758822.801 18627312.906 16833114.366 10 0 59472 21600.00000 0 3398827.897 16904700.824 18858415.321 10 0 59472 22500.00000 0 1757527.316 15125050.162 20519371.768 10 0 59472 23400.00000 0 -143792.621 13350684.369 21783858.535 10 0 59472 24300.00000 0 -2271976.981 11640247.818 22627361.318 10 0 59472 25200.00000 0 -4583125.347 10046347.926 23033447.944 10 0 59472 26100.00000 0 -7024167.505 8613463.990 22994090.166 10 0 59472 27000.00000 0 -9534829.149 7376208.408 22509829.740 10 0 59472 27900.00000 0 -12049909.095 6358011.843 21589784.913 10 0 59472 28800.00000 0 -14501776.308 5570286.993 20251495.921 10 0 59472 29700.00000 0 -16822985.691 5012106.205 18520610.678 10 0 59472 30600.00000 0 -18948905.968 4670407.374 16430414.566 10 0 59472 31500.00000 0 -20820251.405 4520720.867 14021211.082 10 0 59472 32400.00000 0 -22385412.351 4528388.456 11339563.024 10 0 59472 33300.00000 0 -23602486.764 4650224.441 8437406.811 10 0 59472 34200.00000 0 -24440926.515 4836550.106 5371055.566 10 0 59472 35100.00000 0 -24882727.698 5033516.197 2200109.297 10 0 59472 36000.00000 0 -24923112.894 5185615.060 -1013706.999 10 0 59472 36900.00000 0 -24570674.540 5238275.241 -4207754.199 10 0 59472 37800.00000 0 -23846971.564 5140426.901 -7319714.274 10 0 59472 38700.00000 0 -22785594.876 4846927.033 -10288824.181 10 0 59472 39600.00000 0 -21430740.450 4320738.943 -13057082.309 10 0 59472 40500.00000 0 -19835350.209 3534770.731 -15570401.814 10 0 59472 41400.00000 0 -18058899.790 2473292.052 -17779686.244 10 0 59472 42300.00000 0 -16164927.755 1132866.765 -19641804.522 10 0 59472 43200.00000 0 -14218411.915 -477240.019 -21120444.829 10 0 59472 44100.00000 0 -12283104.871 -2335199.021 -22186829.735 10 0 59472 45000.00000 0 -10418942.376 -4407292.995 -22820278.150 10 0 59472 45900.00000 0 -8679634.465 -6649103.715 -23008603.251 10 0 59472 46800.00000 0 -7110540.951 -9007159.585 -22748339.193 10 0 59472 47700.00000 0 -5746920.190 -11420973.986 -22044793.126 10 0 59472 48600.00000 0 -4612623.487 -13825388.131 -20911922.803 10 0 59472 49500.00000 0 -3719288.078 -16153119.584 -19372043.566 10 0 59472 50400.00000 0 -3066060.158 -18337409.142 -17455372.003 10 0 59472 51300.00000 0 -2639856.663 -20314655.251 -15199416.651 10 0 59472 52200.00000 0 -2416151.708 -22026926.058 -12648229.054 10 0 59472 53100.00000 0 -2360251.546 -23424244.803 -9851531.078 10 0 59472 54000.00000 0 -2429001.555 -24466554.313 -6863736.537 10 0 59472 54900.00000 0 -2572850.959 -25125280.201 -3742886.946 10 0 59472 55800.00000 0 -2738186.522 -25384429.400 -549522.715 10 0 59472 56700.00000 0 -2869835.665 -25241180.348 2654488.135 10 0 59472 57600.00000 0 -2913633.064 -24705942.363 5807141.184 10 0 59472 58500.00000 0 -2818942.688 -23801883.715 8847484.120 10 0 59472 59400.00000 0 -2541029.676 -22563949.752 11716780.434 10 0 59472 60300.00000 0 -2043183.133 -21037413.158 14359627.111 10 0 59472 61200.00000 0 -1298501.617 -19276017.277 16725006.090 10 0 59472 62100.00000 0 -291267.164 -17339789.706 18767251.004 10 0 59472 63000.00000 0 982149.318 -15292616.273 20446912.282 10 0 59472 63900.00000 0 2512889.256 -13199675.004 21731505.594 10 0 59472 64800.00000 0 4279731.725 -11124834.920 22596130.691 10 0 59472 65700.00000 0 6249739.137 -9128125.729 23023949.812 10 0 59472 66600.00000 0 8379398.565 -7263381.625 23006516.969 10 0 59472 67500.00000 0 10616213.880 -5576155.349 22543951.787 10 0 59472 68400.00000 0 12900685.514 -4101987.887 21644953.872 10 0 59472 69300.00000 0 15168598.509 -2865105.148 20326656.204 10 0 59472 70200.00000 0 17353526.540 -1877595.762 18614318.606 10 0 59472 71100.00000 0 19389450.031 -1139104.768 16540865.046 10 0 59472 72000.00000 0 21213380.889 -637057.011 14146271.393 10 0 59472 72900.00000 0 22767885.101 -347402.115 11476813.169 10 0 59472 73800.00000 0 24003397.732 -235851.071 8584185.742 10 0 59472 74700.00000 0 24880232.335 -259553.616 5524512.456 10 0 59472 75600.00000 0 25370198.908 -369146.373 2357258.892 10 0 59472 76500.00000 0 25457760.264 -511085.403 -855926.022 10 0 59472 77400.00000 0 25140675.800 -630163.935 -4052419.027 10 0 59472 78300.00000 0 24430103.315 -672107.325 -7169857.162 10 0 59472 79200.00000 0 23350152.681 -586133.304 -10147372.325 10 0 59472 80100.00000 0 21936908.862 -327366.484 -12926799.679 10 0 59472 81000.00000 0 20236964.878 140997.999 -15453834.188 10 0 59472 81900.00000 0 18305526.618 845876.198 -17679110.636 10 0 59472 82800.00000 0 16204170.155 1802902.013 -19559184.070 10 0 59472 83700.00000 0 13998347.190 3015519.899 -21057390.065 10 0 59472 84600.00000 0 11754744.989 4474603.628 -22144567.052 10 0 59472 85500.00000 0 9538613.270 6158618.093 -22799626.037 99